(173) Ino
ephemeris date magn radius delta ra dec elong phase
Opposition14 May 202612.63.149 AU2.183 AU15h44m+01°24'159.4°6.5°
Today27 Jun 202613.03.086 AU2.352 AU15h14m+01°24'128.3°15.0°
(173) Ino - 2026-06-27
astro.vanbuitenen.nl


 
-1 year
-1 month
-1 day
Now
+1 day
+1 month
+1 year

The interactive orbit chart above shows the body's path through the solar system and its position at the given date. Green and blue lines are shown perpendicular to the ecliptic plane: Green if the path is above the ecliptic plane, blue if it is below. (Left-click and drag to rotate the view; Right-click and drag to move the view; Use scroll wheel to zoom in our out.)

The orbital elements of Ino are:

            e (Eccentricity)                : 0.2093396
            a (Semimajor axis)              : 2.7421540
            i (Inclination)                 : 14.19456
            Ω (Longitude of ascending node) : 148.11879
            ω (Argument of perihelion)      : 228.53493
            M (Mean anomaly)                : 238.83177
            Epoch                           : 2026 Jun 09

            L (Longitude of perihelion)     : 195.77064
            B (Latitude of perihelion)      : -10.58852
            P (Orbital period in years)     : 4.54            
        

The light curve chart below shows the estimated development of the minor planet's magnitude.


The all-sky chart below shows the path of the minor planet over the same period as the light curve. The current position is marked yellow.





The following chart shows the path of the minor planet in the next few days. The field of view is optimized for (~10x50) binoculars and finderscopes.




Ephemerides:
Date       Time       RA (2000)    DEC (2000)    delta   radius  elong  phase   PA    magn
2026-06-27 00:00 UT   15 14 59.3   +01 24 19     2.352    3.086  128.3   15.0   122   13.0 
2026-06-27 15:32 UT   15 14 46.0   +01 21 57     2.357    3.085  127.7   15.1   121   13.1 
2026-06-28 00:00 UT   15 14 39.0   +01 20 39     2.360    3.085  127.4   15.2   121   13.1 
2026-06-29 00:00 UT   15 14 19.9   +01 16 51     2.369    3.083  126.5   15.4   120   13.1 
2026-06-30 00:00 UT   15 14 02.1   +01 12 54     2.378    3.082  125.6   15.6   120   13.1 
2026-07-01 00:00 UT   15 13 45.6   +01 08 50     2.387    3.080  124.6   15.8   119   13.1 
2026-07-02 00:00 UT   15 13 30.3   +01 04 38     2.396    3.079  123.7   15.9   119   13.1 
2026-07-03 00:00 UT   15 13 16.2   +01 00 19     2.405    3.077  122.8   16.1   118   13.1 
2026-07-04 00:00 UT   15 13 03.5   +00 55 52     2.414    3.076  121.9   16.3   118   13.1 
2026-07-05 00:00 UT   15 12 51.9   +00 51 18     2.424    3.074  121.1   16.5   118   13.2 
2026-07-06 00:00 UT   15 12 41.7   +00 46 37     2.433    3.072  120.2   16.6   117   13.2 
2026-07-07 00:00 UT   15 12 32.7   +00 41 49     2.443    3.071  119.3   16.8   117   13.2 
2026-07-08 00:00 UT   15 12 25.0   +00 36 54     2.453    3.069  118.4   16.9   116   13.2 
2026-07-09 00:00 UT   15 12 18.6   +00 31 52     2.463    3.068  117.5   17.1   116   13.2 
2026-07-10 00:00 UT   15 12 13.4   +00 26 44     2.473    3.066  116.6   17.2   115   13.2 
2026-07-11 00:00 UT   15 12 09.5   +00 21 29     2.483    3.064  115.7   17.4   115   13.2 
2026-07-12 00:00 UT   15 12 06.9   +00 16 09     2.493    3.063  114.9   17.5   115   13.2 
2026-07-13 00:00 UT   15 12 05.6   +00 10 42     2.503    3.061  114.0   17.7   114   13.3 
2026-07-14 00:00 UT   15 12 05.5   +00 05 10     2.514    3.060  113.1   17.8   114   13.3 
2026-07-15 00:00 UT   15 12 06.7   +00 00 28     2.524    3.058  112.3   17.9   113   13.3 
2026-07-16 00:00 UT   15 12 09.2   +00 06 12     2.535    3.056  111.4   18.0   113   13.3 
2026-07-17 00:00 UT   15 12 12.9   +00 12 01     2.546    3.055  110.6   18.2   113   13.3 
2026-07-18 00:00 UT   15 12 18.0   +00 17 55     2.556    3.053  109.7   18.3   112   13.3 
2026-07-19 00:00 UT   15 12 24.2   +00 23 54     2.567    3.051  108.9   18.4   112   13.3 
2026-07-20 00:00 UT   15 12 31.7   +00 29 58     2.578    3.050  108.0   18.5   112   13.3 
2026-07-21 00:00 UT   15 12 40.5   +00 36 07     2.589    3.048  107.2   18.6   111   13.3 
2026-07-22 00:00 UT   15 12 50.4   +00 42 20     2.600    3.046  106.4   18.7   111   13.4 
2026-07-23 00:00 UT   15 13 01.6   +00 48 37     2.611    3.045  105.5   18.8   111   13.4 
2026-07-24 00:00 UT   15 13 14.0   +00 54 59     2.622    3.043  104.7   18.8   110   13.4 
2026-07-25 00:00 UT   15 13 27.6   -01 01 24     2.634    3.041  103.9   18.9   110   13.4 
2026-07-26 00:00 UT   15 13 42.4   -01 07 54     2.645    3.040  103.1   19.0   110   13.4 
2026-07-27 00:00 UT   15 13 58.4   -01 14 27     2.656    3.038  102.2   19.1   110   13.4 


    Terminology:
            
    delta:  distance between minor planet and earth in AU
    radius: distance between minor planet and sun in AU
    magn:   magnitude (brightness) estimate    
    ra:     right ascension in hours (24h = 360deg)
    dec:    declination in degrees
    elong:  elongation in degrees (angle sun-earth-minor planet)    
    phase:  phase angle in degrees (angle sun-minor planet-earth)        
    AU:     Astronomical Unit (mean distance between earth and sun: 149597870.7 km
    

Orbital elements provided by the MPC (Minor Planet Center).
Calculations by a modified version of AAPlus, a C# implementation of the AA+ project by PJ Naughter from the algorithms presented in the book "Astronomical Algorithms" by Jean Meeus.
NGC2000 dso catalog and star labels from VizieR as provided by the Strasbourg astronomical Data Center.
Tycho2 catalog from the ESO archive.